[[{"header":{"parameterUnit":"m.s-1","parameterCategory":1,"la1":30.2991,"la2":30.254,"lo1":-89.0895,"lo2":-89.0444,"dy":0.0017,"dx":0.0017,"nx":28,"ny":28,"refTime":"2025-01-18T03:00:00:Z","depth":0,"parameterNumber":2,"parameterNumberName":"U-component_of_WINDS"},"data":[0,0,0,0,0,0,0,0,0,0,0,0,0,0,0,0,0,0,0,0,0,0,0,0,0,0,0,0,0,0,0,0,0,0,0,0,0,0,0,0,0,0,0,0,0,0,0,0,0,0,0,0,0,0,0,0,0,0,0.1094,0.1093,0,0.0933,0.0931,0.0929,0.0838,0.0837,0.0837,0.0837,0.0667,0.0662,0.0658,0,0,0,0,0,0,0,0,0,0,0,0,0,0.132,0.1316,0.1095,0.1093,0.1091,0.0933,0.0931,0.0929,0.0838,0.0837,0.0837,0.0837,0.0668,0.0663,0.0658,0,0,0,0,0,0,0,0,0,0,0,0,0,0.1196,0.1315,0.1095,0.1026,0.1019,0.0933,0.0931,0.0928,0.0838,0.0837,0.0837,0.0836,0.067,0.0664,0.0657,0.0626,0,0,0.0638,0.0635,0,0,0,0,0,0,0,0,0.1204,0.1188,0.1038,0.1031,0.1022,0.0905,0.0948,0.0827,0.0838,0.0906,0.0837,0.0836,0.0746,0.0733,0.0704,0.0619,0.0611,0.0637,0.0633,0.063,0.0629,0,0,0,0,0,0,0,0.1212,0.1195,0.103,0.1036,0.1026,0.1002,0.0984,0.0924,0.083,0.09,0.0893,0.0876,0.0741,0.071,0.0699,0.0609,0.0637,0.0632,0.0628,0.0625,0.0488,0.0488,0,0,0,0,0,0,0.1232,0.1202,0.1036,0.1026,0.1114,0.0998,0.0978,0.0943,0.0831,0.0813,0.0876,0.0872,0.0721,0.0707,0.0693,0.0648,0.0631,0.0625,0.0621,0.0488,0.0488,0.0488,0,0,0,0,0,0,0.1238,0.1218,0.1042,0.1112,0.1088,0.0995,0.0956,0.094,0.0909,0.0813,0.0795,0.0862,0.072,0.0702,0.0643,0.0641,0.0622,0.0616,0.0487,0.0488,0.0488,0.056,0,0,0,0,0,0,0.1244,0.1221,0.121,0.1112,0.1084,0.0997,0.0956,0.0937,0.0898,0.0891,0.0795,0.0778,0.0719,0.0654,0.0637,0.0632,0.0611,0.0487,0.0488,0.0488,0.0558,0.0563,0.0567,0,0,0,0,0,0.1253,0.1236,0.1209,0.119,0.1069,0.0998,0.0981,0.0915,0.0899,0.0886,0.0824,0.0781,0.0644,0.0648,0.0629,0.0622,0.0487,0.0488,0.0488,0.0555,0.0562,0.0567,0,0,0,0,0,0,0.1334,0.1222,0.1191,0.1143,0.1081,0.0982,0.0964,0.0924,0.0863,0.0859,0.0777,0.0756,0.0706,0.0658,0.0664,0.0585,0.0561,0.0558,0.0619,0.0624,0.0629,0.0641,0.0606,0,0,0,0,0,0.1346,0.1299,0.1203,0.1169,0.114,0.1058,0.1024,0.0978,0.091,0.0882,0.0816,0.075,0.0692,0.0655,0.0596,0.055,0.0527,0.0535,0.0541,0.0545,0.0543,0.0513,0.0515,0.049,0.049,0.0489,0,0,0.1371,0.1304,0.1279,0.1184,0.113,0.1082,0.1036,0.0987,0.095,0.0874,0.0816,0.0765,0.0685,0.0633,0.0606,0.0591,0.0545,0.0546,0.055,0.0545,0.0514,0.0516,0.0519,0.049,0.049,0.049,0,0,0.1391,0.1336,0.1302,0.1249,0.1169,0.1114,0.1106,0.1013,0.0977,0.0917,0.0859,0.0812,0.0714,0.066,0.0619,0.0618,0.0576,0.0601,0.0626,0.0598,0.06,0.0602,0.06,0.06,0.0599,0.0599,0.0599,0,0.1431,0.1358,0.1288,0.1243,0.1202,0.1133,0.1096,0.1047,0.0952,0.0924,0.0909,0.0784,0.0726,0.0659,0.0658,0.0628,0.0615,0.0611,0.0606,0.0607,0.0607,0.0604,0.0604,0.0603,0.0602,0.0602,0.0602,0,0.1411,0.1361,0.1342,0.1253,0.1209,0.1169,0.1091,0.1056,0.1013,0.0959,0.0898,0.0826,0.075,0.0731,0.0689,0.0657,0.065,0.0622,0.0595,0.0614,0.061,0.0609,0.0608,0.0606,0.0605,0.0605,0,0,0.1478,0.135,0.1345,0.1303,0.1209,0.1167,0.1122,0.105,0.1021,0.0956,0.0915,0.0834,0.0806,0.076,0.0711,0.0687,0.0688,0.066,0.0657,0.0667,0.0648,0.067,0.067,0.066,0.066,0.0659,0.0654,0,0.1484,0.1402,0.1337,0.1279,0.123,0.1163,0.1124,0.1061,0.1009,0.0959,0.0901,0.0844,0.0813,0.0784,0.0757,0.0694,0.0683,0.0694,0.0619,0.0618,0.0641,0.0668,0.0691,0.0689,0.0652,0.0652,0.0652,0,0.148,0.142,0.1357,0.1267,0.1244,0.121,0.1138,0.1092,0.1018,0.0982,0.093,0.0879,0.0826,0.0805,0.073,0.0739,0.0704,0.0669,0.0667,0.0657,0.0636,0.0658,0.0687,0.0687,0.0649,0.0649,0.0649,0,0.1534,0.1437,0.1386,0.1353,0.1247,0.1224,0.1178,0.1104,0.1065,0.1001,0.0974,0.0905,0.0866,0.0813,0.0743,0.0735,0.0675,0.0649,0.0642,0.0644,0.0632,0.0634,0.0656,0.0612,0.0612,0.0612,0.0612,0,0.1547,0.1511,0.1409,0.1378,0.1335,0.126,0.1219,0.1167,0.1102,0.1058,0.0995,0.0955,0.0866,0.0814,0.0759,0.0705,0.0688,0.0656,0.0642,0.0661,0.0665,0.0637,0.0635,0.0612,0.0612,0.0612,0.0612,0,0.1601,0.1531,0.1471,0.1376,0.1351,0.1323,0.124,0.1206,0.1151,0.1096,0.1079,0.0992,0.0927,0.0853,0.0764,0.0727,0.0676,0.0656,0.0702,0.0693,0.0691,0.0692,0.0695,0.0691,0.0651,0.0651,0.0652,0,0.1614,0.1584,0.1486,0.1453,0.1409,0.1357,0.1316,0.1241,0.1201,0.1114,0.109,0.1021,0.0963,0.0863,0.079,0.0721,0.0698,0.0703,0.0687,0.0707,0.0696,0.0699,0.0694,0.0708,0.0709,0.071,0.071,0,0.1643,0.161,0.1555,0.1487,0.1441,0.1384,0.1323,0.1299,0.1211,0.1169,0.1104,0.1058,0.0967,0.0899,0.0821,0.0772,0.0726,0.0716,0.0711,0.073,0.0758,0.0741,0.0714,0.0716,0.0716,0.0715,0.0715,0.0715,0.1675,0.1646,0.1572,0.1512,0.1459,0.1404,0.1368,0.1308,0.1253,0.1174,0.1132,0.1067,0.0992,0.0883,0.0835,0.0781,0.0765,0.0758,0.0756,0.0755,0.076,0.0767,0.0767,0.0766,0.0766,0.0766,0.0766,0,0.1701,0.165,0.1596,0.1514,0.1467,0.1429,0.136,0.1323,0.1267,0.1201,0.1145,0.1068,0.1002,0.0924,0.0852,0.0823,0.08,0.0807,0.0808,0.0797,0.0779,0.079,0.0827,0.0827,0.0827,0.0827,0.0827,0.0827,0.1709,0.1657,0.1615,0.1535,0.1483,0.142,0.1384,0.1332,0.1279,0.1198,0.1143,0.1093,0.1021,0.0943,0.088,0.0858,0.0834,0.0847,0.0819,0.0803,0.0798,0.0793,0.0803,0.0842,0.0842,0.0841,0.0841,0.0841]},{"header":{"parameterUnit":"m.s-1","parameterCategory":1,"la1":30.2991,"la2":30.254,"lo1":-89.0895,"lo2":-89.0444,"dy":0.0017,"dx":0.0017,"nx":28,"ny":28,"refTime":"2025-01-18T03:00:00:Z","depth":0,"parameterNumber":3,"parameterNumberName":"V-component_of_WINDS"},"data":[0,0,0,0,0,0,0,0,0,0,0,0,0,0,0,0,0,0,0,0,0,0,0,0,0,0,0,0,0,0,0,0,0,0,0,0,0,0,0,0,0,0,0,0,0,0,0,0,0,0,0,0,0,0,0,0,0,0,5.5486,5.5487,0,5.5648,5.565,5.5651,5.5674,5.5673,5.5671,5.567,5.5836,5.5841,5.5847,0,0,0,0,0,0,0,0,0,0,0,0,0,5.5196,5.5201,5.5485,5.5487,5.5489,5.5647,5.565,5.5652,5.5674,5.5673,5.5671,5.5669,5.5834,5.5841,5.5848,0,0,0,0,0,0,0,0,0,0,0,0,0,5.5336,5.5203,5.5485,5.552,5.5524,5.5647,5.565,5.5653,5.5675,5.5673,5.567,5.5668,5.5832,5.584,5.5849,5.5948,0,0,5.5875,5.5879,0,0,0,0,0,0,0,0,5.5328,5.5347,5.5513,5.5518,5.5523,5.5638,5.5608,5.5751,5.5675,5.5618,5.567,5.5667,5.5772,5.5785,5.5821,5.5956,5.5963,5.5876,5.5881,5.5885,5.5888,0,0,0,0,0,0,0,5.5318,5.534,5.555,5.5515,5.5521,5.5527,5.5545,5.5636,5.5705,5.5623,5.5625,5.5644,5.5774,5.5812,5.5825,5.5965,5.5876,5.5884,5.5889,5.5892,5.6193,5.6195,0,0,0,0,0,0,5.5302,5.5332,5.5544,5.5554,5.5418,5.5535,5.5554,5.5604,5.5705,5.5718,5.5645,5.5644,5.5798,5.5815,5.5831,5.5956,5.5885,5.5893,5.5898,5.619,5.6193,5.6196,0,0,0,0,0,0,5.5296,5.5321,5.5538,5.5444,5.5472,5.5542,5.5597,5.5608,5.5646,5.5722,5.5734,5.5671,5.5797,5.5818,5.5919,5.5962,5.5897,5.5905,5.6187,5.6191,5.6195,5.6206,0,0,0,0,0,0,5.5288,5.5319,5.5357,5.5444,5.5477,5.5623,5.56,5.5613,5.5661,5.5661,5.575,5.5762,5.5797,5.5906,5.5928,5.5973,5.5912,5.6183,5.6189,5.6193,5.6202,5.621,5.6217,0,0,0,0,0,5.5277,5.5353,5.5359,5.5384,5.5526,5.5626,5.5644,5.5683,5.5664,5.5704,5.5753,5.5759,5.5953,5.5916,5.5941,5.5989,5.6181,5.6187,5.6193,5.6199,5.6209,5.6217,0,0,0,0,0,0,5.5268,5.5365,5.5372,5.5478,5.5544,5.5629,5.568,5.5692,5.5764,5.5761,5.5806,5.5826,5.5925,5.5967,5.5924,5.6092,5.6065,5.6077,5.6062,5.6071,5.6079,5.6068,5.5919,0,0,0,0,0,5.5278,5.5351,5.5432,5.5518,5.555,5.561,5.5654,5.5679,5.5749,5.5776,5.5832,5.59,5.5976,5.6026,5.61,5.6208,5.6229,5.6253,5.626,5.6266,5.6276,5.634,5.6352,5.6216,5.6216,5.6216,0,0,5.53,5.5362,5.5405,5.5518,5.5571,5.5647,5.5633,5.5712,5.5769,5.5788,5.5888,5.5931,5.6009,5.6115,5.6164,5.6153,5.6318,5.6274,5.6278,5.6285,5.6347,5.636,5.6372,5.6221,5.622,5.6219,0,0,5.538,5.5433,5.5512,5.5566,5.5648,5.5687,5.5706,5.579,5.582,5.5921,5.5937,5.6005,5.6135,5.6191,5.6237,5.6339,5.6349,5.6362,5.6401,5.6462,5.6473,5.6483,5.6522,5.6535,5.6371,5.6371,5.6371,0,5.5397,5.5511,5.5551,5.5631,5.5681,5.5702,5.5783,5.5834,5.5935,5.5969,5.5955,5.6121,5.6174,5.6295,5.632,5.6355,5.638,5.6353,5.6468,5.6478,5.6488,5.6526,5.6541,5.6372,5.6372,5.6372,5.6372,0,5.553,5.5609,5.5663,5.5762,5.5818,5.5898,5.595,5.6002,5.6021,5.6062,5.6166,5.6231,5.632,5.635,5.6369,5.6474,5.6465,5.6458,5.6433,5.6502,5.6539,5.6553,5.6374,5.6374,5.6373,5.6373,0,0,5.5609,5.573,5.5749,5.5796,5.5888,5.595,5.6031,5.6119,5.6164,5.6233,5.6304,5.6414,5.641,5.6461,5.6487,5.654,5.6621,5.6528,5.653,5.6546,5.6744,5.6751,5.6767,5.6627,5.663,5.6632,5.6739,0,5.5702,5.5849,5.5887,5.6013,5.6088,5.6109,5.6181,5.6245,5.6286,5.6356,5.64,5.6479,5.6465,5.6497,5.655,5.66,5.6662,5.6592,5.6696,5.6699,5.6679,5.6786,5.6793,5.6891,5.6753,5.6756,5.6757,0,5.583,5.5904,5.6037,5.6121,5.6154,5.6218,5.6303,5.6369,5.6443,5.6469,5.6527,5.6548,5.6636,5.6603,5.6726,5.6677,5.6722,5.6752,5.6757,5.6771,5.6734,5.6806,5.6922,5.6938,5.678,5.6778,5.6776,0,5.5879,5.601,5.6108,5.6146,5.6246,5.6291,5.6335,5.6407,5.6458,5.6532,5.6566,5.6649,5.6695,5.6759,5.6802,5.6774,5.6922,5.6893,5.6948,5.6947,5.698,5.6978,5.7109,5.7003,5.7003,5.7003,5.7002,0,5.598,5.6061,5.6132,5.6192,5.6284,5.6327,5.6418,5.6462,5.6526,5.6597,5.6618,5.6684,5.6736,5.6809,5.6843,5.6941,5.696,5.6985,5.6994,5.6985,5.6983,5.7017,5.7013,5.7007,5.7006,5.7005,5.7004,0,5.6051,5.6101,5.6209,5.6296,5.6319,5.6384,5.6458,5.6518,5.6559,5.6648,5.6671,5.6736,5.6823,5.6872,5.6981,5.7004,5.7114,5.7117,5.709,5.7094,5.7148,5.7143,5.7308,5.7333,5.7207,5.7208,5.7209,0,5.6114,5.6177,5.6271,5.632,5.6365,5.6443,5.6496,5.6541,5.6595,5.6685,5.6735,5.6823,5.6897,5.7035,5.7092,5.7176,5.7184,5.7236,5.7197,5.7187,5.7189,5.7187,5.7195,5.7244,5.7245,5.7246,5.7247,0,5.6221,5.6243,5.6319,5.6404,5.6467,5.6536,5.6604,5.6642,5.6699,5.6759,5.6849,5.6906,5.7018,5.7106,5.7195,5.7241,5.7255,5.7258,5.7276,5.727,5.7252,5.7266,5.7112,5.7255,5.7254,5.7253,5.7253,5.7253,5.6293,5.6351,5.6428,5.6512,5.6568,5.6632,5.6693,5.6743,5.6818,5.6914,5.6935,5.7031,5.7105,5.7226,5.7274,5.735,5.7341,5.7366,5.7373,5.7379,5.7383,5.7237,5.7366,5.7366,5.7366,5.7365,5.7365,0,5.6405,5.6455,5.6532,5.6628,5.6694,5.67,5.6776,5.6832,5.6916,5.6984,5.7056,5.7161,5.7247,5.7311,5.74,5.7448,5.7457,5.747,5.7469,5.748,5.7384,5.7362,5.7462,5.7462,5.7462,5.7462,5.7462,5.7462,5.6471,5.6572,5.6603,5.6732,5.6782,5.6876,5.692,5.6979,5.7035,5.715,5.7223,5.7264,5.7331,5.7425,5.7505,5.7522,5.7555,5.7568,5.7586,5.7496,5.7486,5.7477,5.7456,5.7574,5.7574,5.7676,5.7677,5.7678]}]]